[[{"header":{"parameterUnit":"m.s-1","parameterCategory":1,"la1":30.2991,"la2":30.254,"lo1":-89.0895,"lo2":-89.0444,"dy":0.0017,"dx":0.0017,"nx":28,"ny":28,"refTime":"2024-06-07T21:00:00:Z","depth":0,"parameterNumber":2,"parameterNumberName":"U-component_of_WINDS"},"data":[0,0,0,0,0,0,0,0,0,0,0,0,0,0,0,0,0,0,0,0,0,0,0,0,0,0,0,0,0,0,0,0,0,0,0,0,0,0,0,0,0,0,0,0,0,0,0,0,0,0,0,0,0,0,0,0,0,0,0.1963,0.1965,0,0.218,0.2183,0.2185,0.2231,0.2229,0.2227,0.2226,0.2459,0.2466,0.2474,0,0,0,0,0,0,0,0,0,0,0,0,0,0.1596,0.1602,0.1962,0.1965,0.1968,0.218,0.2183,0.2186,0.2231,0.2229,0.2227,0.2225,0.2456,0.2465,0.2475,0,0,0,0,0,0,0,0,0,0,0,0,0,0.1779,0.1604,0.1962,0.2016,0.2023,0.2179,0.2183,0.2186,0.2231,0.2229,0.2226,0.2224,0.2453,0.2464,0.2476,0.2597,0,0,0.2511,0.2517,0,0,0,0,0,0,0,0,0.1768,0.1792,0.2005,0.2012,0.202,0.2175,0.2139,0.2325,0.2232,0.2152,0.2226,0.2223,0.2367,0.2386,0.2432,0.2608,0.2618,0.2512,0.252,0.2525,0.2528,0,0,0,0,0,0,0,0.1755,0.1783,0.2049,0.2008,0.2018,0.2032,0.2055,0.2174,0.2272,0.2159,0.2163,0.2187,0.2371,0.2421,0.2438,0.2622,0.2512,0.2522,0.253,0.2534,0.291,0.2913,0,0,0,0,0,0,0.1732,0.1772,0.2042,0.2055,0.1885,0.2041,0.2067,0.2128,0.227,0.2289,0.2189,0.2189,0.2402,0.2425,0.2447,0.2599,0.2524,0.2535,0.2542,0.2907,0.2911,0.2914,0,0,0,0,0,0,0.1724,0.1756,0.2033,0.1915,0.1951,0.205,0.2119,0.2134,0.2184,0.2293,0.2311,0.2222,0.2401,0.243,0.2559,0.2608,0.2541,0.2551,0.2903,0.2908,0.2912,0.2904,0,0,0,0,0,0,0.1713,0.1752,0.1797,0.1915,0.1957,0.2139,0.2121,0.214,0.2203,0.2204,0.2328,0.2347,0.2402,0.2541,0.2571,0.2623,0.256,0.29,0.2906,0.2911,0.2901,0.2908,0.2914,0,0,0,0,0,0.17,0.1788,0.1799,0.1832,0.2015,0.2142,0.2166,0.2224,0.2206,0.2254,0.2324,0.2343,0.2597,0.2554,0.2588,0.2644,0.2897,0.2904,0.291,0.2898,0.2907,0.2914,0,0,0,0,0,0,0.1678,0.1805,0.1818,0.1947,0.2033,0.2149,0.2211,0.2232,0.2327,0.2325,0.2396,0.2424,0.2549,0.2609,0.2559,0.2769,0.2747,0.276,0.2726,0.2735,0.2741,0.2726,0.257,0,0,0,0,0,0.1686,0.1776,0.1884,0.1987,0.2029,0.2112,0.217,0.2207,0.23,0.2338,0.2417,0.251,0.2611,0.2676,0.2775,0.2909,0.2938,0.2964,0.2971,0.2976,0.2988,0.3065,0.3078,0.2936,0.2936,0.2936,0,0,0.1708,0.1789,0.1842,0.1984,0.2055,0.2149,0.2143,0.2242,0.2314,0.2354,0.248,0.2541,0.265,0.2782,0.2844,0.2836,0.3033,0.2984,0.2988,0.2997,0.3073,0.3087,0.3099,0.2941,0.294,0.2939,0,0,0.1796,0.1864,0.1958,0.2029,0.2134,0.2189,0.2211,0.2325,0.2366,0.2493,0.2525,0.2612,0.2784,0.286,0.2921,0.3036,0.3058,0.3067,0.3103,0.3177,0.3189,0.3199,0.3242,0.3256,0.3078,0.3078,0.3078,0,0.1811,0.195,0.2005,0.2103,0.2166,0.2202,0.23,0.2367,0.2501,0.2545,0.2532,0.2749,0.2824,0.2975,0.3003,0.3051,0.3081,0.3054,0.3182,0.3193,0.3203,0.3245,0.3261,0.3078,0.3078,0.3078,0.3078,0,0.1963,0.2059,0.2123,0.2248,0.2318,0.2415,0.2488,0.2553,0.2584,0.264,0.277,0.2861,0.298,0.3018,0.305,0.3174,0.3166,0.3167,0.3146,0.3216,0.3257,0.3273,0.3079,0.3079,0.3078,0.3078,0,0,0.2045,0.2197,0.222,0.2277,0.2396,0.2473,0.2573,0.2685,0.274,0.2831,0.2919,0.3062,0.3064,0.3133,0.3174,0.3239,0.3326,0.3233,0.3236,0.3248,0.3471,0.3471,0.3488,0.334,0.3344,0.3346,0.3463,0,0.2148,0.2323,0.2376,0.2525,0.2616,0.2651,0.2739,0.2823,0.2878,0.2966,0.3029,0.313,0.3123,0.3165,0.3231,0.3301,0.3372,0.3294,0.3426,0.343,0.3399,0.3509,0.351,0.3615,0.3479,0.3481,0.3483,0,0.2293,0.2382,0.2539,0.2646,0.2686,0.2763,0.2871,0.2953,0.305,0.3086,0.3162,0.3198,0.3306,0.3277,0.3429,0.3374,0.3432,0.3475,0.348,0.3497,0.3462,0.3531,0.365,0.3667,0.3509,0.3507,0.3505,0,0.2339,0.2499,0.2614,0.2661,0.2789,0.2842,0.2899,0.2993,0.3057,0.3151,0.3194,0.3301,0.3361,0.3445,0.3509,0.3481,0.3657,0.3632,0.3693,0.3691,0.373,0.3727,0.3862,0.3763,0.3763,0.3763,0.3762,0,0.245,0.2545,0.2636,0.2707,0.2815,0.2875,0.2982,0.304,0.3124,0.3209,0.3247,0.3327,0.3406,0.3497,0.3549,0.3668,0.3695,0.373,0.3743,0.3727,0.3723,0.3768,0.3763,0.3767,0.3766,0.3765,0.3764,0,0.2521,0.2585,0.2712,0.2821,0.2851,0.2926,0.3021,0.3093,0.3148,0.3256,0.3285,0.3374,0.3484,0.3555,0.3696,0.3731,0.3862,0.3872,0.3828,0.3835,0.3892,0.3886,0.4062,0.4089,0.3969,0.397,0.3971,0,0.2588,0.2662,0.2777,0.2835,0.289,0.2984,0.3048,0.3111,0.3177,0.3292,0.3351,0.3462,0.3554,0.3728,0.3808,0.3916,0.3931,0.3985,0.3948,0.393,0.3934,0.393,0.3938,0.3991,0.3992,0.3993,0.3994,0,0.2702,0.273,0.2819,0.292,0.2995,0.3079,0.3163,0.3209,0.3287,0.336,0.347,0.3541,0.3683,0.3794,0.3909,0.3971,0.3997,0.4004,0.4024,0.4011,0.3983,0.4001,0.3847,0.4001,0.4,0.4,0.3999,0.3999,0.2776,0.2842,0.2934,0.3033,0.3101,0.3178,0.3251,0.3314,0.3406,0.3524,0.3556,0.3672,0.3768,0.3925,0.3989,0.4082,0.4077,0.4105,0.4113,0.412,0.4121,0.3965,0.4104,0.4103,0.4103,0.4103,0.4103,0,0.2893,0.2953,0.3043,0.3157,0.3235,0.3247,0.3341,0.3407,0.3507,0.3593,0.3681,0.3809,0.3916,0.4003,0.4115,0.4173,0.4188,0.4201,0.4199,0.4213,0.4119,0.4091,0.4187,0.4187,0.4187,0.4187,0.4187,0.4187,0.2964,0.3078,0.3116,0.3266,0.3326,0.3436,0.3489,0.3562,0.363,0.3769,0.3857,0.3912,0.3999,0.4117,0.4217,0.424,0.4281,0.4291,0.4318,0.4229,0.4219,0.4211,0.4185,0.4299,0.4299,0.4404,0.4405,0.4406]},{"header":{"parameterUnit":"m.s-1","parameterCategory":1,"la1":30.2991,"la2":30.254,"lo1":-89.0895,"lo2":-89.0444,"dy":0.0017,"dx":0.0017,"nx":28,"ny":28,"refTime":"2024-06-07T21:00:00:Z","depth":0,"parameterNumber":3,"parameterNumberName":"V-component_of_WINDS"},"data":[0,0,0,0,0,0,0,0,0,0,0,0,0,0,0,0,0,0,0,0,0,0,0,0,0,0,0,0,0,0,0,0,0,0,0,0,0,0,0,0,0,0,0,0,0,0,0,0,0,0,0,0,0,0,0,0,0,0,-0.7659,-0.7658,0,-0.7547,-0.7546,-0.7544,-0.7576,-0.7578,-0.758,-0.7583,-0.7463,-0.7458,-0.7452,0,0,0,0,0,0,0,0,0,0,0,0,0,-0.7896,-0.7892,-0.7659,-0.7658,-0.7656,-0.7547,-0.7546,-0.7544,-0.7575,-0.7578,-0.7581,-0.7584,-0.7465,-0.7458,-0.7452,0,0,0,0,0,0,0,0,0,0,0,0,0,-0.779,-0.789,-0.7659,-0.7659,-0.7658,-0.7548,-0.7546,-0.7544,-0.7575,-0.7578,-0.7582,-0.7585,-0.7467,-0.7459,-0.7451,-0.7333,0,0,-0.7427,-0.7423,0,0,0,0,0,0,0,0,-0.7796,-0.7781,-0.766,-0.7659,-0.7657,-0.7579,-0.7586,-0.7473,-0.7574,-0.7606,-0.7583,-0.7587,-0.7498,-0.7488,-0.7459,-0.7327,-0.7322,-0.7426,-0.7421,-0.7418,-0.7415,0,0,0,0,0,0,0,-0.7803,-0.7786,-0.7615,-0.7659,-0.7657,-0.7663,-0.7652,-0.7564,-0.7534,-0.7604,-0.7606,-0.7592,-0.7498,-0.7467,-0.7457,-0.732,-0.7426,-0.7419,-0.7414,-0.7411,-0.7086,-0.7082,0,0,0,0,0,0,-0.7812,-0.7792,-0.7618,-0.7611,-0.7737,-0.7656,-0.7643,-0.7601,-0.7535,-0.7529,-0.7589,-0.7594,-0.7479,-0.7466,-0.7453,-0.7309,-0.7418,-0.741,-0.7406,-0.7089,-0.7085,-0.7081,0,0,0,0,0,0,-0.7817,-0.7796,-0.7623,-0.7702,-0.7681,-0.7648,-0.76,-0.7597,-0.7565,-0.7525,-0.7519,-0.7563,-0.7481,-0.7464,-0.7363,-0.7306,-0.7407,-0.7399,-0.7094,-0.7088,-0.7083,-0.7022,0,0,0,0,0,0,-0.7824,-0.7798,-0.7753,-0.7701,-0.7676,-0.7536,-0.7597,-0.7592,-0.7552,-0.7557,-0.7499,-0.7492,-0.7482,-0.7374,-0.7355,-0.7296,-0.7393,-0.7099,-0.7091,-0.7084,-0.7029,-0.7015,-0.7003,0,0,0,0,0,-0.7832,-0.774,-0.7751,-0.773,-0.762,-0.7532,-0.7518,-0.751,-0.7547,-0.7502,-0.7476,-0.7494,-0.7316,-0.7364,-0.7342,-0.728,-0.7102,-0.7093,-0.7085,-0.7035,-0.7018,-0.7003,0,0,0,0,0,0,-0.7785,-0.7733,-0.7745,-0.7633,-0.7587,-0.7538,-0.748,-0.7492,-0.7433,-0.744,-0.7432,-0.7419,-0.7315,-0.7288,-0.7342,-0.7162,-0.7214,-0.7201,-0.7183,-0.7167,-0.7154,-0.7162,-0.7387,0,0,0,0,0,-0.7762,-0.7696,-0.7654,-0.7559,-0.7536,-0.7512,-0.7473,-0.7472,-0.7423,-0.7403,-0.737,-0.732,-0.7253,-0.7209,-0.7145,-0.7026,-0.7013,-0.6973,-0.696,-0.695,-0.6937,-0.6871,-0.6853,-0.7052,-0.7052,-0.7052,0,0,-0.7712,-0.7676,-0.7635,-0.7549,-0.7513,-0.7444,-0.7495,-0.742,-0.7368,-0.7391,-0.7293,-0.7268,-0.7212,-0.7101,-0.7051,-0.7075,-0.688,-0.6938,-0.693,-0.6923,-0.686,-0.6842,-0.6825,-0.7046,-0.7047,-0.7048,0,0,-0.7587,-0.7554,-0.7471,-0.7434,-0.738,-0.7365,-0.7345,-0.7294,-0.7278,-0.7181,-0.7197,-0.7135,-0.702,-0.6979,-0.6944,-0.6805,-0.6819,-0.6784,-0.6715,-0.6651,-0.6635,-0.6621,-0.657,-0.6552,-0.6773,-0.6773,-0.6772,0,-0.7532,-0.7429,-0.7426,-0.7349,-0.7311,-0.7331,-0.7246,-0.7211,-0.7138,-0.711,-0.714,-0.6996,-0.696,-0.684,-0.6806,-0.6777,-0.6753,-0.679,-0.6638,-0.6624,-0.6611,-0.6562,-0.6543,-0.6769,-0.6769,-0.6769,-0.677,0,-0.7364,-0.7293,-0.7232,-0.7163,-0.7118,-0.7037,-0.7021,-0.6975,-0.6978,-0.6959,-0.686,-0.6818,-0.6746,-0.6718,-0.6719,-0.6597,-0.6614,-0.6641,-0.6692,-0.6588,-0.6542,-0.6523,-0.6763,-0.6764,-0.6766,-0.6767,0,0,-0.7203,-0.7134,-0.7112,-0.708,-0.7023,-0.6967,-0.6888,-0.6819,-0.6779,-0.6729,-0.6661,-0.6564,-0.6589,-0.6548,-0.6545,-0.649,-0.6381,-0.6523,-0.6522,-0.6496,-0.6242,-0.6221,-0.6199,-0.6391,-0.6387,-0.6384,-0.6246,0,-0.7071,-0.6932,-0.6928,-0.68,-0.6734,-0.6753,-0.6684,-0.664,-0.6621,-0.6561,-0.654,-0.6471,-0.651,-0.6485,-0.6431,-0.6405,-0.6329,-0.6416,-0.6325,-0.6322,-0.6336,-0.6175,-0.6152,-0.6023,-0.6228,-0.6225,-0.6223,0,-0.6898,-0.6843,-0.671,-0.6662,-0.6634,-0.6572,-0.6508,-0.6451,-0.6402,-0.6393,-0.6348,-0.6354,-0.6272,-0.6328,-0.6213,-0.6272,-0.6236,-0.6217,-0.6212,-0.6201,-0.6264,-0.6158,-0.5982,-0.5962,-0.6195,-0.6197,-0.6199,0,-0.6791,-0.6685,-0.6591,-0.6564,-0.6506,-0.6462,-0.6436,-0.6391,-0.6349,-0.6294,-0.6267,-0.6202,-0.6166,-0.6115,-0.6103,-0.6145,-0.5987,-0.6043,-0.5975,-0.5975,-0.5938,-0.594,-0.5752,-0.5919,-0.5919,-0.592,-0.592,0,-0.6643,-0.656,-0.6542,-0.6484,-0.6392,-0.6387,-0.6295,-0.6272,-0.6232,-0.6169,-0.6182,-0.6122,-0.6111,-0.6048,-0.6038,-0.5944,-0.5928,-0.5916,-0.5914,-0.5914,-0.5915,-0.5887,-0.5895,-0.5914,-0.5916,-0.5917,-0.5917,0,-0.6507,-0.6492,-0.6391,-0.6346,-0.6333,-0.6266,-0.6226,-0.617,-0.6154,-0.6074,-0.6055,-0.6028,-0.5956,-0.5939,-0.5852,-0.5846,-0.5733,-0.5741,-0.575,-0.5749,-0.5681,-0.5687,-0.5467,-0.5437,-0.5626,-0.5624,-0.5622,0,-0.6412,-0.6349,-0.6297,-0.6257,-0.6229,-0.6163,-0.6122,-0.6116,-0.6072,-0.6012,-0.5963,-0.5892,-0.5834,-0.5717,-0.5689,-0.5623,-0.5627,-0.5555,-0.5617,-0.5618,-0.5623,-0.5626,-0.5619,-0.5542,-0.554,-0.5538,-0.5537,0,-0.6244,-0.6241,-0.6181,-0.6119,-0.607,-0.602,-0.5973,-0.5939,-0.5926,-0.5876,-0.5803,-0.5759,-0.5671,-0.56,-0.5533,-0.5505,-0.5517,-0.5518,-0.5498,-0.5496,-0.5502,-0.5496,-0.5715,-0.5522,-0.5524,-0.5525,-0.5526,-0.5526,-0.6124,-0.6069,-0.6024,-0.5957,-0.5922,-0.5878,-0.5823,-0.58,-0.574,-0.5668,-0.5669,-0.5588,-0.5541,-0.5453,-0.5421,-0.5357,-0.5379,-0.5351,-0.5344,-0.5336,-0.5329,-0.5516,-0.5345,-0.5346,-0.5346,-0.5347,-0.5347,0,-0.5956,-0.5928,-0.5867,-0.5802,-0.5749,-0.5769,-0.5718,-0.5672,-0.5601,-0.5557,-0.5501,-0.5416,-0.5348,-0.5316,-0.5247,-0.5202,-0.5206,-0.5184,-0.5186,-0.5179,-0.5314,-0.5337,-0.5182,-0.5182,-0.5182,-0.5182,-0.5182,-0.5182,-0.5861,-0.5768,-0.5759,-0.5648,-0.5621,-0.5543,-0.5512,-0.5471,-0.5436,-0.5341,-0.5285,-0.5265,-0.5225,-0.5155,-0.5092,-0.5085,-0.5058,-0.5032,-0.5027,-0.5153,-0.517,-0.5185,-0.5207,-0.5027,-0.5027,-0.4897,-0.4896,-0.4895]}]]